Weather reports worldwide

Advertisment
Hohenfels, Germany (10775): temperature & dewpoint: 10.09.2019 05:00:00 - 16.09.2019 05:00:00 (CEST)Hohenfels, Germany (10775): wind speed: 10.09.2019 05:00:00 - 16.09.2019 05:00:00 (CEST)Hohenfels, Germany (10775): wind direction: 10.09.2019 05:00:00 - 16.09.2019 05:00:00 (CEST)Hohenfels, Germany (10775): reduced air pressure: 10.09.2019 05:00:00 - 16.09.2019 05:00:00 (CEST)Hohenfels, Germany (10775): visibility: 10.09.2019 05:00:00 - 16.09.2019 05:00:00 (CEST)Hohenfels, Germany (10775): precipitation: 10.09.2019 05:00:00 - 16.09.2019 05:00:00 (CEST)
Date & Time tt [°C] td [°C] ff [km/h] ff [kn] dd ppp [hPa] vv [km] rr [mm]
16.09.2019 05:00:00 9,5 9,5 0 0 N 1020,4 10 -
16.09.2019 04:00:00 10,5 10,5 0 0 N 1020,7 10 -
16.09.2019 03:00:00 11,2 11,2 0 0 N 1020,7 10 -
16.09.2019 02:00:00 11,1 11,1 0 0 N 1021,3 10 -
16.09.2019 01:00:00 12,1 12,1 0 0 N 1021,4 10 -
16.09.2019 00:00:00 13,4 13,4 0 0 N 1021,6 10 -
15.09.2019 23:00:00 13,8 13,8 5 3 NNW 1021,6 10 -
15.09.2019 22:00:00 14,5 14,5 0 0 N 1021,8 10 -
15.09.2019 21:00:00 16,4 16,2 0 0 N 1021,6 10 -
15.09.2019 20:00:00 18,2 18,0 8 4 W 1021,5 10 -
15.09.2019 19:00:00 22,4 17,9 0 0 N 1021,3 10 -
15.09.2019 18:00:00 25,5 17,4 5 3 WSW 1021,3 10 -
15.09.2019 17:00:00 25,7 17,3 11 6 WSW 1021,6 10 -
15.09.2019 16:00:00 25,3 17,5 9 5 SW 1022,3 10 -
15.09.2019 15:00:00 24,7 18,6 5 3 SW 1022,6 10 -
15.09.2019 14:00:00 23,7 17,9 0 0 N 1023,6 10 -
15.09.2019 13:00:00 23,0 18,5 5 3 S 1024,3 10 0,0
15.09.2019 12:00:00 21,7 19,4 9 5 S 1025,0 10 -
15.09.2019 11:00:00 19,7 18,7 5 3 SE 1025,9 10 -
15.09.2019 10:00:00 17,1 16,9 0 0 N 1026,1 10 -
15.09.2019 09:00:00 13,9 13,9 0 0 N 1026,3 10 -
15.09.2019 08:00:00 9,4 9,4 0 0 N 1026,8 10 -
15.09.2019 07:00:00 7,9 7,9 0 0 N 1026,6 10 -
15.09.2019 06:00:00 8,3 8,3 0 0 N 1026,8 10 -
15.09.2019 05:00:00 8,8 8,8 0 0 N 1027,1 10 -
15.09.2019 04:00:00 9,2 9,2 0 0 N 1027,4 10 -
15.09.2019 03:00:00 9,9 9,9 0 0 N 1027,8 10 -
15.09.2019 02:00:00 10,2 10,2 0 0 N 1028,1 10 -
15.09.2019 01:00:00 11,0 11,0 0 0 N 1028,3 10 -
15.09.2019 00:00:00 11,4 11,4 0 0 N 1029,2 10 -
14.09.2019 23:00:00 12,9 12,9 0 0 N 1029,3 10 -
14.09.2019 22:00:00 13,2 13,2 0 0 N 1029,5 10 -
14.09.2019 21:00:00 14,2 14,2 0 0 N 1029,5 10 -
14.09.2019 20:00:00 16,2 16,0 5 3 W 1029,2 10 -
14.09.2019 19:00:00 20,4 15,8 0 0 N 1028,8 10 -
14.09.2019 18:00:00 21,4 16,1 5 3 NE 1028,8 10 -
14.09.2019 17:00:00 21,4 16,3 8 4 NE 1028,6 10 -
14.09.2019 16:00:00 20,8 16,2 5 3 ENE 1029,3 10 0,0
14.09.2019 15:00:00 20,6 16,8 0 0 N 1029,9 10 -
14.09.2019 14:00:00 20,8 17,4 9 5 ENE 1030,3 10 0,0
14.09.2019 13:00:00 20,4 18,3 9 5 ESE 1030,6 10 0,0
14.09.2019 12:00:00 19,7 18,5 8 4 E 1031,3 10 -
14.09.2019 11:00:00 18,7 17,9 5 3 SSE 1031,3 10 -
14.09.2019 10:00:00 17,4 17,2 8 4 E 1032,2 10 -
14.09.2019 09:00:00 15,6 15,6 0 0 N 1032,2 10 -
14.09.2019 08:00:00 13,5 13,5 0 0 N 1031,8 10 -
14.09.2019 07:00:00 13,7 13,7 0 0 N 1031,5 10 -
14.09.2019 06:00:00 13,6 13,6 0 0 N 1031,3 10 -
14.09.2019 05:00:00 14,6 14,6 5 3 NNW 1031,7 10 -
14.09.2019 04:00:00 15,0 15,0 5 3 N 1031,1 10 -
14.09.2019 03:00:00 15,5 15,5 0 0 N 1031,1 10 -
14.09.2019 02:00:00 - - - - - - - -
14.09.2019 01:00:00 15,9 15,9 0 0 N 1031,7 10 -
14.09.2019 00:00:00 16,0 16,0 5 3 NW 1031,7 10 -
13.09.2019 23:00:00 17,2 17,2 0 0 N 1031,7 10 -
13.09.2019 22:00:00 17,5 17,5 5 3 W 1031,1 10 -
13.09.2019 21:00:00 18,5 18,3 0 0 N 1031,3 10 -
13.09.2019 20:00:00 19,2 19,0 0 0 N 1031,7 10 -
13.09.2019 19:00:00 20,4 18,9 0 0 N 1031,2 10 -
13.09.2019 18:00:00 21,2 18,4 5 3 WNW 1031,0 10 -
13.09.2019 17:00:00 21,9 18,9 5 3 WSW 1031,2 10 -
13.09.2019 16:00:00 22,0 18,4 8 4 WNW 1031,2 10 -
13.09.2019 15:00:00 21,4 18,2 16 9 W 1031,7 10 -
13.09.2019 14:00:00 20,8 18,4 11 6 WNW 1032,0 10 -
13.09.2019 13:00:00 20,8 18,4 13 7 W 1032,0 10 -
13.09.2019 12:00:00 20,4 19,0 13 7 WNW 1032,0 10 -
13.09.2019 11:00:00 19,1 18,8 11 6 W 1032,0 10 -
13.09.2019 10:00:00 19,0 18,8 9 5 W 1031,7 10 -
13.09.2019 09:00:00 16,4 16,4 0 0 N 1031,9 10 -
13.09.2019 08:00:00 12,7 12,7 5 3 NNW 1031,5 10 -
13.09.2019 07:00:00 10,6 10,6 0 0 N 1031,4 10 -
13.09.2019 06:00:00 11,3 11,3 0 0 N 1031,0 10 -
13.09.2019 05:00:00 11,8 11,8 0 0 N 1030,8 10 -
13.09.2019 04:00:00 12,2 12,2 0 0 N 1030,8 10 -
13.09.2019 03:00:00 12,0 12,0 0 0 N 1031,2 10 -
13.09.2019 02:00:00 11,5 11,5 0 0 N 1031,2 10 -
13.09.2019 01:00:00 11,8 11,8 0 0 N 1031,2 10 -
13.09.2019 00:00:00 12,7 12,7 0 0 N 1031,4 10 -
12.09.2019 23:00:00 13,5 13,5 0 0 N 1031,2 10 -
12.09.2019 22:00:00 13,6 13,6 0 0 N 1031,0 10 -
12.09.2019 21:00:00 14,8 14,8 5 3 WNW 1030,9 10 -
12.09.2019 20:00:00 16,7 16,5 8 4 W 1030,9 10 -
12.09.2019 19:00:00 21,0 16,4 0 0 N 1030,1 10 -
12.09.2019 18:00:00 21,9 15,9 11 6 W 1029,8 10 -
12.09.2019 17:00:00 22,7 16,0 13 7 W 1030,1 10 -
12.09.2019 16:00:00 22,0 15,6 11 6 SW 1030,5 10 -
12.09.2019 15:00:00 22,1 15,2 11 6 SSW 1030,7 10 -
12.09.2019 14:00:00 21,5 14,6 8 4 WSW 1031,0 10 -
12.09.2019 13:00:00 20,9 14,3 9 5 WSW 1031,2 10 -
12.09.2019 12:00:00 19,8 13,5 15 8 SW 1031,2 10 -
12.09.2019 11:00:00 19,1 14,8 13 7 WSW 1031,4 10 -
12.09.2019 10:00:00 17,8 15,4 5 3 W 1030,9 10 -
12.09.2019 09:00:00 14,7 14,5 0 0 N 1030,4 10 -
12.09.2019 08:00:00 12,7 12,7 0 0 N 1030,0 10 -
12.09.2019 07:00:00 12,2 12,2 0 0 N 1029,5 10 -
12.09.2019 06:00:00 11,8 11,8 0 0 N 1028,6 10 -
12.09.2019 05:00:00 11,3 11,3 0 0 N 1028,6 10 -
12.09.2019 04:00:00 11,4 11,4 5 3 W 1028,3 10 0,0
12.09.2019 03:00:00 9,7 9,7 0 0 N 1028,1 10 -
12.09.2019 02:00:00 9,1 9,1 8 4 W 1028,0 10 -
12.09.2019 01:00:00 8,5 8,5 0 0 N 1027,6 10 -
12.09.2019 00:00:00 9,9 9,9 5 3 NNW 1027,3 10 -
11.09.2019 23:00:00 9,9 9,9 0 0 N 1027,1 10 -
11.09.2019 22:00:00 11,3 11,3 0 0 N 1027,0 10 -
11.09.2019 21:00:00 12,6 12,4 8 4 W 1026,8 10 -
11.09.2019 20:00:00 14,1 13,9 8 4 W 1025,8 10 -
11.09.2019 19:00:00 17,1 13,4 5 3 W 1024,9 10 -
11.09.2019 18:00:00 20,3 12,3 9 5 W 1024,7 10 -
11.09.2019 17:00:00 20,7 12,1 9 5 SW 1024,2 10 -
11.09.2019 16:00:00 20,3 12,8 11 6 W 1024,1 10 -
11.09.2019 15:00:00 19,9 12,4 0 0 N 1024,4 10 -
11.09.2019 14:00:00 19,3 12,3 8 4 W 1024,4 10 -
11.09.2019 13:00:00 18,3 12,3 5 3 N 1024,4 10 -
11.09.2019 12:00:00 17,2 13,5 0 0 N 1024,6 10 -
11.09.2019 11:00:00 15,2 14,2 0 0 N 1024,6 10 0,0
11.09.2019 10:00:00 13,2 13,0 5 3 NW 1024,4 10 -
11.09.2019 09:00:00 8,3 8,3 0 0 N 1024,8 10 -
11.09.2019 08:00:00 7,0 7,0 0 0 N 1024,0 10 -
11.09.2019 07:00:00 7,0 7,0 0 0 N 1023,4 10 -
11.09.2019 06:00:00 6,8 6,8 8 4 NNW 1022,2 10 -
11.09.2019 05:00:00 6,8 6,8 0 0 N 1022,2 10 -
11.09.2019 04:00:00 7,0 7,0 5 3 NNW 1022,2 10 -
11.09.2019 03:00:00 6,5 6,5 0 0 N 1022,4 10 -
11.09.2019 02:00:00 6,5 6,5 0 0 N 1022,0 10 -
11.09.2019 01:00:00 7,0 7,0 0 0 N 1022,2 10 -
11.09.2019 00:00:00 7,5 7,5 0 0 N 1022,4 10 -
10.09.2019 23:00:00 8,2 8,2 0 0 N 1022,4 10 -
10.09.2019 22:00:00 9,2 9,2 0 0 N 1022,1 10 -
10.09.2019 21:00:00 10,2 10,2 0 0 N 1021,4 10 -
10.09.2019 20:00:00 12,0 12,0 9 5 W 1020,7 10 -
10.09.2019 19:00:00 15,7 12,3 0 0 N 1020,0 10 -
10.09.2019 18:00:00 16,7 11,4 0 0 N 1019,7 10 -
10.09.2019 17:00:00 17,3 13,6 8 4 ENE 1019,3 10 -
10.09.2019 16:00:00 16,6 12,9 0 0 N 1019,3 10 -
10.09.2019 15:00:00 15,9 14,6 5 3 NNW 1019,3 10 -
10.09.2019 14:00:00 14,2 14,0 0 0 N 1019,8 10 -
10.09.2019 13:00:00 12,4 12,4 5 3 ENE 1019,5 10 0,0
10.09.2019 12:00:00 10,8 10,8 5 3 ESE 1020,1 10 -
10.09.2019 11:00:00 9,8 9,8 8 4 E 1019,7 4,0 -
10.09.2019 10:00:00 8,0 8,0 0 0 N 1019,9 0,6 -
10.09.2019 09:00:00 7,3 7,3 0 0 N 1019,4 0,2 -
10.09.2019 08:00:00 6,3 6,3 0 0 N 1019,0 0,2 -
10.09.2019 07:00:00 6,0 6,0 0 0 N 1018,0 0,2 -
10.09.2019 06:00:00 5,9 5,9 0 0 N 1017,5 0,4 -
10.09.2019 05:00:00 6,0 6,0 0 0 N 1017,1 0,6 -

tt = temperature
td = dewpoint
ff = wind speed
dd = wind direction
ppp = reduced air pressure
vv = visibility
rr = precipitation

Next stations